User: anonymous   Login
Location: Sankt Anna
(58.3452°N, 16.7040°E)
Time: 10:56:10
(UTC+02:00)
Language:

nSIGHT-1 - Orbit

View from above orbital plane
View from above orbital plane
View from above satellite
View from above satellite

Ground track
Ground track

The orbit data is extracted from the following two-line orbital elements,

1 42726U 98067MF  19145.24602044  .00014137  00000-0  11742-3 0  9997
2 42726  51.6392  73.6640 0006657  85.7034  67.4547 15.70461023113979
Epoch (UTC): 25 May 2019 05:54:16
Eccentricity: 0.0006657
inclination: 51.6392°
perigee height: 353 km
apogee height: 362 km
right ascension of ascending node: 73.6640°
argument of perigee: 85.7034°
revolutions per day: 15.70461023
mean anomaly at epoch: 67.4547°
orbit number at epoch: 11397

The dashed part of the orbit path shows where the satellite is in the earth's shadow,  

DLR